User: anonymous   Login
Location: Unspecified
(0.0000°N, 0.0000°E)
Time: 17:16:27
(UTC+00:00)
Language:

USA 186 - Orbit

View from above orbital plane
View from above orbital plane
View from above satellite
View from above satellite

Ground track
Ground track

The orbit data is extracted from the following two-line orbital elements,

1 28888U 05042A   17273.80297124 0.00039500  00000-0  16156-3 0    00
2 28888  96.8599 311.1926 0131150  71.8562 288.1437 15.73882554    06
Epoch (UTC): 30 September 2017 19:16:16
Eccentricity: 0.0131150
inclination: 96.8599°
perigee height: 259 km
apogee height: 436 km
right ascension of ascending node: 311.1926°
argument of perigee: 71.8562°
revolutions per day: 15.73882554
mean anomaly at epoch: 288.1437°
orbit number at epoch: 0

The dashed part of the orbit path shows where the satellite is in the earth's shadow,  

DLR